Regional Weather Roundup
Issued by NWS

Home | Current Version | Previous Version | Text Only | Print | Product List | Glossary Off
Versions: 1 2 3 4 5 6 7 8 9 10 11 12 13 14 15 16 17 18 19 20 21 22 23 24 25 26 27 28 29 30 31 32 33 34 35 36 37 38 39 40 41 42 43 44 45 46 47 48 49 50

000
ASUS43 KLMK 030702
RWRKY
KENTUCKY REGIONAL WEATHER ROUNDUP
NATIONAL WEATHER SERVICE LOUISVILLE KY
300 AM EDT FRI JUL 03 2015

NOTE "FAIR" INDICATES FEW OR NO CLOUDS BELOW 12,000 FEET
WITH NO SIGNIFICANT WEATHER AND/OR OBSTRUCTIONS TO VISIBILITY.

KYZ001>023-026-027-061>063-070>075-030800-
WESTERN AND SOUTH CENTRAL KENTUCKY

CITY           SKY/WX    TMP DP  RH WIND       PRES   REMARKS
PADUCAH        CLOUDY    73  70  90 CALM      29.84F
HENDERSON      PTCLDY    72  68  88 CALM      29.83F
OWENSBORO      MOCLDY    73  71  93 CALM      29.84F
HOPKINSVILLE   CLOUDY    73  71  95 S5        29.84F
BOWLING GREEN  CLOUDY    74  71  91 W3        29.85S
GLASGOW        NOT AVBL
$$

KYZ024-025-028>034-038-045-046-053-030800-
NORTH CENTRAL KENTUCKY

CITY           SKY/WX    TMP DP  RH WIND       PRES   REMARKS
LOUISVILLE/SDF CLOUDY    74  70  87 CALM      29.84F
LOUISVILLE/LOU CLOUDY    72  71  97 CALM      29.85F
FORT KNOX      CLOUDY    72  70  94 S5        29.84F
$$

KYZ035>037-039>044-047>052-055>060-089>105-030800-
NORTHEAST KENTUCKY

CITY           SKY/WX    TMP DP  RH WIND       PRES   REMARKS
LEXINGTON      CLOUDY    71  68  90 E3        29.87F
COVINGTON      CLOUDY    69  65  86 NE9       29.90F FOG
FRANKFORT      CLOUDY    70  67  90 NE6       29.86F
$$

KYZ054-064>069-076>088-106>120-030800-
SOUTHEAST KENTUCKY

CITY           SKY/WX    TMP DP  RH WIND       PRES   REMARKS
JACKSON        CLOUDY    67  66  97 VRB3      29.90F FOG
LONDON         CLOUDY    71  66  84 CALM      29.89F
SOMERSET       NOT AVBL
MIDDLESBORO    CLOUDY    71  69  96 CALM      29.90F
MONTICELLO     CLOUDY    71  71 100 SW6       29.91F
$$




USA.gov is the U.S. government's official web portal to all federal, state and local government web resources and services.